EST,Max TemperatureF,Mean TemperatureF,Min TemperatureF,Max Dew PointF,MeanDew PointF,Min DewpointF,Max Humidity, Mean Humidity, Min Humidity, Max Sea Level PressureIn, Mean Sea Level PressureIn, Min Sea Level PressureIn, Max VisibilityMiles, Mean VisibilityMiles, Min VisibilityMiles, Max Wind SpeedMPH, Mean Wind SpeedMPH, Max Gust SpeedMPH,PrecipitationIn, CloudCover, Events, WindDirDegrees
2012-11-1,80,67,55,64,59,56,100,74,47,30.09,30.04,29.98,10,10,10,15,6,21,0.00,1,,264
2012-11-2,79,70,63,67,58,45,100,74,31,30.10,30.06,30.02,10,10,9,10,6,,0.00,1,,302
2012-11-3,80,68,57,62,56,48,100,69,35,30.15,30.10,30.06,10,10,10,12,4,,0.00,0,,2
2012-11-4,78,70,61,66,63,61,100,80,56,30.13,30.07,30.02,10,10,8,8,2,,0.00,1,,89
2012-11-5,78,71,64,67,60,53,100,72,45,30.03,29.99,29.94,10,10,10,9,4,,0.00,0,,284
2012-11-6,82,72,63,68,60,49,100,71,33,29.96,29.89,29.83,10,10,10,14,5,23,0.00,2,,258
2012-11-7,71,65,57,67,56,50,100,74,49,30.00,29.92,29.86,10,10,10,18,9,26,0.00,1,,306
2012-11-8,68,60,53,53,43,36,84,55,31,30.12,30.07,29.99,10,10,10,21,9,26,0.00,0,,326
2012-11-9,75,65,55,57,52,47,90,61,37,30.21,30.16,30.11,10,10,10,16,11,23,0.00,3,,24
2012-11-10,75,72,68,56,53,50,57,52,45,30.27,30.22,30.18,10,10,10,17,11,24,0.00,6,,64
2012-11-11,78,76,73,73,60,54,100,60,50,30.25,30.20,30.17,10,10,6,22,16,30,0.11,6,Rain,84
2012-11-12,79,75,71,72,69,65,100,82,64,30.21,30.16,30.13,10,8,2,24,16,32,0.49,5,Rain,90
2012-11-13,79,76,73,70,66,64,83,74,60,30.15,30.10,30.06,10,10,10,15,11,20,0.00,2,,61
2012-11-14,80,74,69,68,66,62,90,73,62,30.12,30.08,30.06,10,10,10,14,9,,0.00,3,,58
2012-11-15,79,72,64,69,64,60,97,76,52,30.11,30.07,30.04,10,10,10,10,5,,0.03,2,Rain,30
2012-11-16,75,70,64,69,66,64,100,92,69,30.12,30.08,30.03,10,10,8,15,9,20,0.28,6,Rain,348
2012-11-17,75,70,66,68,66,63,100,84,66,30.11,30.06,30.03,10,10,10,13,8,18,0.20,4,Rain,28
2012-11-18,78,72,66,69,67,64,100,88,62,30.12,30.07,30.03,10,10,7,18,9,25,0.13,4,Rain,354
2012-11-19,71,65,59,65,59,55,100,85,63,30.13,30.08,30.02,10,10,10,15,10,21,0.00,2,,329
2012-11-20,73,65,57,65,61,58,100,93,73,30.05,30.00,29.93,10,8,2,15,10,,0.00,7,,316
2012-11-21,73,65,57,62,57,53,100,79,51,30.04,29.98,29.93,10,10,10,17,11,22,0.00,1,,326
2012-11-22,73,64,55,54,50,47,81,63,43,30.12,30.05,30.01,10,10,10,21,14,26,0.00,0,,329
2012-11-23,75,65,55,57,54,49,86,70,50,30.15,30.10,30.06,10,10,10,14,9,17,0.00,1,,337
2012-11-24,73,64,54,56,51,46,90,66,38,30.13,30.07,30.02,10,10,10,14,6,23,0.00,0,,308
2012-11-25,75,64,53,57,54,52,100,74,43,30.14,30.10,30.06,10,10,8,7,5,,0.00,0,,301
2012-11-26,75,67,59,61,59,56,93,72,56,30.21,30.16,30.12,10,10,10,12,4,,0.00,2,,104
2012-11-27,79,74,70,66,63,60,87,70,58,30.20,30.15,30.11,10,10,10,13,9,,0.00,3,,142
2012-11-28,79,72,66,67,64,58,100,82,48,30.19,30.15,30.11,10,10,7,17,7,16,0.00,2,Rain,343
2012-11-29,77,70,62,65,63,60,100,78,62,30.22,30.18,30.15,10,10,6,21,12,29,0.12,5,Rain,45
2012-11-30,75,73,71,63,60,58,73,65,56,30.23,30.17,30.14,10,10,10,21,15,26,0.00,6,,68